Weather History for Lowell, ID

Change the Weather History Date:

Monday, July 8, 2013

  Actual Average Record
Temperature  
Mean Temperature 76 °F -  
Max Temperature 91 °F 84 °F 99 °F (2012)
Min Temperature 61 °F 52 °F 45 °F (1999)
Cooling Degree Days 11    
Growing Degree Days 26 (Base 50)    
Moisture  
Dew Point 57 °F    
Average Humidity 66    
Maximum Humidity 93    
Minimum Humidity 29    
Precipitation  
Precipitation 0.09 in - - ()
Sea Level Pressure  
Sea Level Pressure 29.88 in    
Wind  
Wind Speed 2 mph (North)    
Max Wind Speed 8 mph    
Max Gust Speed -    
Averages and records for this station are not official NWS values.
T = Trace of Precipitation, MM = Missing Value Source: NWS Daily Summary

Daily Weather History Graph

Daily Weather History Graph

Search for Another Location

Airport:

Trip Planner

Search our weather history database for the weather conditions in past years. The results will help you decide how hot, cold, wet, or windy it might be!

Date:

Astronomy

Jul. 08, 2013 Rise Set
Actual Time 5:59 AM MDT 9:34 PM MDT
Civil Twilight 5:22 AM MDT 10:12 PM MDT
Nautical Twilight 4:31 AM MDT 11:02 PM MDT
Astronomical Twilight 3:24 AM MDT 12:09 AM MDT
Moon 6:38 AM MDT (7/8) 9:32 PM MDT (7/8)
Length of Visible Light 16h 50m
Length of Day
15h 34m
New Moon, 0% of the Moon is Illuminated
Jul 8
New Moon
Jul 15
First Quarter
Jul 22
Full
Jul 29
Last Quarter
Aug 6
New

Hourly Weather History & Observations

Time (MDT) Temp. Heat Index Dew Point Humidity Pressure Visibility Wind Dir Wind Speed Gust Speed Precip Events Conditions
12:52 AM 63.0 °F - 55.0 °F 75% 29.78 in - North 3.5 mph - N/A   Unknown
1:52 AM 63.0 °F - 55.0 °F 75% 29.78 in - Calm Calm - N/A   Unknown
2:52 AM 62.1 °F - 55.0 °F 78% 29.78 in - North 3.5 mph - N/A   Unknown
3:52 AM 62.1 °F - 55.0 °F 78% 29.78 in - Calm Calm - N/A   Unknown
4:52 AM 62.1 °F - 55.9 °F 80% 29.77 in - North 8.1 mph - N/A   Unknown
5:52 AM 63.0 °F - 55.0 °F 75% 29.83 in - Calm Calm - N/A   Unknown
6:52 AM 61.0 °F - 57.0 °F 87% 29.83 in - Calm Calm - 0.02 in   Unknown
7:52 AM 61.0 °F - 57.9 °F 90% 29.87 in - Calm Calm - N/A   Unknown
8:52 AM 64.0 °F - 57.0 °F 78% 29.91 in - North 3.5 mph - N/A   Unknown
9:52 AM 62.1 °F - 60.1 °F 93% 29.92 in - Calm Calm - 0.07 in   Unknown
10:52 AM 64.9 °F - 60.1 °F 84% 29.93 in - North 3.5 mph - N/A   Unknown
11:52 AM 70.0 °F - 60.1 °F 71% 29.91 in - Variable 3.5 mph - N/A   Unknown
12:52 PM 78.1 °F - 57.9 °F 50% 29.89 in - Calm Calm - N/A   Unknown
1:52 PM 82.9 °F 82.8 °F 59.0 °F 44% 29.87 in - Calm Calm - N/A   Unknown
2:52 PM 88.0 °F 86.5 °F 55.9 °F 34% 29.86 in - North 4.6 mph - N/A   Unknown
3:52 PM 91.9 °F 90.0 °F 55.0 °F 29% 29.85 in - Calm Calm - N/A   Unknown
4:52 PM 86.0 °F 84.9 °F 57.0 °F 37% 29.86 in - Variable 3.5 mph - N/A   Unknown
5:52 PM 88.0 °F 86.1 °F 55.0 °F 32% 29.86 in - Calm Calm - N/A   Unknown
6:52 PM 80.1 °F 80.1 °F 55.0 °F 42% 29.90 in - NW 4.6 mph - N/A   Unknown
7:52 PM 75.0 °F - 59.0 °F 57% 29.92 in - Calm Calm - N/A   Unknown
8:52 PM 71.1 °F - 57.9 °F 63% 29.95 in - Calm Calm - N/A   Unknown
9:52 PM 68.0 °F - 57.9 °F 70% 29.99 in - Calm Calm - N/A   Unknown
10:52 PM 64.9 °F - 57.0 °F 75% 30.02 in - Calm Calm - N/A   Unknown
11:52 PM 64.0 °F - 57.0 °F 78% 30.04 in - Calm Calm - N/A   Unknown